Date String (YYYY-MM-DD hh:mm:ss) UTC,Instrument flags,absolute air pressure of the measurement (hPa),sample flow rate (lpm),inlet stack bypass flow (lpm),air temperature of the measurement (°C),ambient temperature measured by the external sensor (°C),aerosol sample conditioner tube jacket temperature (°C),OPC LED temperature (°C),internal box temperature (°C),relative humidity of the measurement (%),span deviation,mass concentration of particles derived from Lorenz-Mie calculation of OPC scattering (μg/m³),mass concentration of particles derived from Lorenz-Mie calculation of OPC scattering (μg/m³),mass concentration of particles derived from Lorenz-Mie calculation of OPC scattering (μg/m³)
DateTimeUTC,F1_M11,P_M11,Q1_M11,Q2_M11,T1_M11,T2_M11,T3_M11,T4_M11,T5_M11,U1_M11,ZSPAN_M11,X0_M11,X2_M11,X1_M11
2024-04-07 12:00:00,SystemResetWarning,0816.8,5.01,000.00,018.4,018.0,000.0,027.2,020.5,010.1,0000.0,0005.49,0001.19,0000.50
2024-04-07 12:01:00,SystemResetWarning,0816.5,5.01,000.00,018.7,019.0,000.0,027.3,021.0,009.9,0000.0,0006.42,0001.22,0000.51
2024-04-07 12:02:00,SystemResetWarning,0816.8,4.98,000.00,018.8,019.0,000.0,027.3,021.0,009.8,0000.0,0006.94,0001.23,0000.51
2024-04-07 12:03:00,SystemResetWarning,0816.8,5.00,000.00,018.8,018.8,000.0,027.2,020.8,009.8,0000.0,0006.95,0001.21,0000.50
2024-04-07 12:04:00,SystemResetWarning,0816.6,5.01,000.00,018.8,018.5,000.0,027.2,020.6,009.8,0000.0,0007.53,0001.23,0000.50
2024-04-07 12:05:00,SystemResetWarning,0816.4,5.01,000.00,018.8,018.3,000.0,027.2,020.5,009.7,0000.0,0008.12,0001.40,0000.50
2024-04-07 12:06:00,SystemResetWarning,0816.7,5.00,000.00,018.7,018.1,000.0,027.2,020.3,009.9,0000.0,0008.09,0001.44,0000.51
2024-04-07 12:07:00,SystemResetWarning,0816.7,4.99,000.00,018.7,017.9,000.0,027.2,020.2,009.9,0000.0,0007.72,0001.48,0000.52
2024-04-07 12:08:00,SystemResetWarning,0816.8,5.00,000.00,018.6,017.7,000.0,027.2,020.1,009.8,0000.0,0007.72,0001.49,0000.52
2024-04-07 12:09:00,SystemResetWarning,0816.8,5.01,000.00,018.5,017.5,000.0,027.2,020.0,009.8,0000.0,0007.79,0001.53,0000.53
2024-04-07 12:10:00,SystemResetWarning,0816.6,5.00,000.00,018.5,017.4,000.0,027.2,020.0,009.9,0000.0,0007.81,0001.57,0000.54
2024-04-07 12:11:00,SystemResetWarning,0816.4,4.99,000.00,018.4,017.3,000.0,027.2,020.0,009.8,0000.0,0007.17,0001.54,0000.54
2024-04-07 12:12:00,SystemResetWarning,0816.4,4.99,000.00,018.4,017.2,000.0,027.2,020.0,009.9,0000.0,0007.56,0001.56,0000.54
2024-04-07 12:13:00,SystemResetWarning,0816.7,5.01,000.00,018.4,017.2,000.0,027.2,020.0,009.9,0000.0,0007.69,0001.59,0000.56
2024-04-07 12:14:00,SystemResetWarning,0816.8,5.01,000.00,018.4,017.2,000.0,027.2,020.0,009.9,0000.0,0007.78,0001.61,0000.56
2024-04-07 12:15:00,SystemResetWarning,0816.8,5.01,000.00,018.3,017.1,000.0,027.2,020.0,009.9,0000.0,0007.56,0001.54,0000.55
2024-04-07 12:16:00,SystemResetWarning,0816.9,5.00,000.00,018.3,017.0,000.0,027.2,020.0,009.9,0000.0,0007.51,0001.41,0000.56
2024-04-07 12:17:00,SystemResetWarning,0816.9,5.00,000.00,018.3,017.3,000.0,027.2,020.1,009.9,0000.0,0007.31,0001.35,0000.55
2024-04-07 12:18:00,SystemResetWarning,0816.9,5.00,000.00,018.5,018.3,000.0,027.3,020.6,009.8,0000.0,0007.78,0001.34,0000.55
2024-04-07 12:19:00,SystemResetWarning,0816.8,4.99,000.00,018.8,018.8,000.0,027.3,021.0,009.6,0000.0,0008.44,0001.29,0000.55
2024-04-07 12:20:00,SystemResetWarning,0816.4,4.98,000.00,018.8,018.6,000.0,027.2,020.7,009.5,0000.0,0008.68,0001.27,0000.54
2024-04-07 12:21:00,SystemResetWarning,0816.6,5.01,000.00,018.7,018.2,000.0,027.2,020.4,009.6,0000.0,0009.06,0001.27,0000.54
2024-04-07 12:22:00,SystemResetWarning,0816.9,5.00,000.00,018.6,017.9,000.0,027.2,020.2,009.7,0000.0,0009.26,0001.31,0000.54
2024-04-07 12:23:00,SystemResetWarning,0816.7,5.00,000.00,018.5,017.6,000.0,027.1,020.0,009.9,0000.0,0008.60,0001.31,0000.54
2024-04-07 12:24:00,SystemResetWarning,0816.9,5.00,000.00,018.5,017.4,000.0,027.2,020.0,009.9,0000.0,0008.02,0001.27,0000.53
2024-04-07 12:25:00,SystemResetWarning,0817.0,5.00,000.00,018.4,017.1,000.0,027.2,020.0,010.0,0000.0,0007.81,0001.23,0000.53
2024-04-07 12:26:00,SystemResetWarning,0816.9,5.00,000.00,018.4,016.9,000.0,027.2,020.0,010.2,0000.0,0007.49,0001.19,0000.54
2024-04-07 12:27:00,SystemResetWarning,0817.0,5.00,000.00,018.4,016.8,000.0,027.2,020.0,010.1,0000.0,0007.21,0001.14,0000.53
2024-04-07 12:28:00,SystemResetWarning,0817.0,5.00,000.00,018.3,016.8,000.0,027.2,020.0,010.1,0000.0,0007.70,0001.13,0000.54
2024-04-07 12:29:00,SystemResetWarning,0816.9,5.00,000.00,018.3,017.0,000.0,027.2,020.1,010.1,0000.0,0007.50,0001.14,0000.54
2024-04-07 12:30:00,SystemResetWarning,0816.9,4.99,000.00,018.5,017.9,000.0,027.2,020.5,010.0,0000.0,0006.28,0001.14,0000.53
2024-04-07 12:31:00,SystemResetWarning,0817.0,5.00,000.00,018.7,018.9,000.0,027.3,021.0,009.9,0000.0,0005.89,0001.14,0000.54
2024-04-07 12:32:00,SystemResetWarning,0817.0,5.00,000.00,018.8,018.8,000.0,027.2,020.9,009.8,0000.0,0006.08,0001.08,0000.54
2024-04-07 12:33:00,SystemResetWarning,0817.0,4.98,000.00,018.8,018.5,000.0,027.2,020.6,009.9,0000.0,0004.99,0001.04,0000.55
2024-04-07 12:34:00,SystemResetWarning,0816.8,5.01,000.00,018.7,018.2,000.0,027.2,020.4,009.8,0000.0,0006.29,0001.04,0000.56
2024-04-07 12:35:00,SystemResetWarning,0817.0,5.01,000.00,018.7,017.9,000.0,027.2,020.3,009.9,0000.0,0007.01,0001.05,0000.56
2024-04-07 12:36:00,SystemResetWarning,0816.9,5.00,000.00,018.6,017.8,000.0,027.2,020.2,009.8,0000.0,0008.08,0001.24,0000.59
2024-04-07 12:37:00,SystemResetWarning,0817.1,4.99,000.00,018.5,017.6,000.0,027.2,020.1,009.9,0000.0,0012.78,0001.82,0000.64
2024-04-07 12:38:00,SystemResetWarning,0817.4,5.00,000.00,018.5,017.5,000.0,027.2,020.0,010.0,0000.0,0014.35,0002.01,0000.65
2024-04-07 12:39:00,SystemResetWarning,0817.1,5.00,000.00,018.4,017.3,000.0,027.2,020.0,010.0,0000.0,0014.87,0002.08,0000.65
2024-04-07 12:40:00,SystemResetWarning,0816.7,5.00,000.00,018.4,017.2,000.0,027.2,020.0,010.1,0000.0,0014.82,0002.05,0000.64
2024-04-07 12:41:00,SystemResetWarning,0817.0,5.01,000.00,018.4,017.2,000.0,027.2,020.0,010.1,0000.0,0015.19,0002.09,0000.65
2024-04-07 12:42:00,SystemResetWarning,0817.3,5.00,000.00,018.4,017.2,000.0,027.2,020.0,010.2,0000.0,0016.40,0002.09,0000.64
2024-04-07 12:43:00,SystemResetWarning,0817.3,5.01,000.00,018.4,017.3,000.0,027.2,020.1,010.3,0000.0,0015.96,0002.11,0000.64
2024-04-07 12:44:00,SystemResetWarning,0817.5,5.00,000.00,018.5,018.2,000.0,027.3,020.5,010.3,0000.0,0015.98,0002.17,0000.64
2024-04-07 12:45:00,SystemResetWarning,0817.2,5.00,000.00,018.8,019.1,000.0,027.3,021.1,010.1,0000.0,0015.55,0002.15,0000.63
2024-04-07 12:46:00,SystemResetWarning,0817.2,5.00,000.00,019.0,019.3,000.0,027.3,021.2,009.9,0000.0,0015.48,0002.18,0000.63
2024-04-07 12:47:00,SystemResetWarning,0817.3,4.99,000.00,018.9,018.9,000.0,027.3,020.9,010.0,0000.0,0015.44,0002.10,0000.63
2024-04-07 12:48:00,SystemResetWarning,0817.4,5.00,000.00,018.9,018.6,000.0,027.2,020.6,009.9,0000.0,0011.72,0001.60,0000.59
2024-04-07 12:49:00,SystemResetWarning,0817.3,5.00,000.00,018.8,018.3,000.0,027.2,020.4,009.9,0000.0,0008.98,0001.30,0000.56
2024-04-07 12:50:00,SystemResetWarning,0817.2,5.01,000.00,018.8,018.0,000.0,027.2,020.3,010.0,0000.0,0007.54,0001.24,0000.57
2024-04-07 12:51:00,SystemResetWarning,0817.4,5.00,000.00,018.7,017.8,000.0,027.2,020.2,010.0,0000.0,0007.37,0001.22,0000.58
2024-04-07 12:52:00,SystemResetWarning,0817.6,5.00,000.00,018.6,017.7,000.0,027.2,020.1,009.9,0000.0,0007.10,0001.20,0000.58
2024-04-07 12:53:00,SystemResetWarning,0817.5,4.99,000.00,018.5,017.5,000.0,027.2,020.0,010.0,0000.0,0004.67,0001.19,0000.59
2024-04-07 12:54:00,SystemResetWarning,0817.5,4.99,000.00,018.5,017.4,000.0,027.2,020.0,010.0,0000.0,0004.32,0001.19,0000.59
2024-04-07 12:55:00,SystemResetWarning,0817.5,4.99,000.00,018.4,017.3,000.0,027.2,020.0,010.2,0000.0,0004.25,0001.15,0000.60
2024-04-07 12:56:00,SystemResetWarning,0817.5,5.00,000.00,018.4,017.3,000.0,027.2,020.0,010.0,0000.0,0004.31,0001.18,0000.61
2024-04-07 12:57:00,SystemResetWarning,0817.6,5.00,000.00,018.4,017.2,000.0,027.2,020.0,010.1,0000.0,0003.41,0001.18,0000.61
2024-04-07 12:58:00,SystemResetWarning,0817.7,5.01,000.00,018.4,017.2,000.0,027.2,020.0,010.1,0000.0,0002.75,0001.14,0000.60
2024-04-07 12:59:00,SystemResetWarning,0817.8,5.00,000.00,018.4,017.3,000.0,027.2,020.1,010.1,0000.0,0002.55,0001.14,0000.60
